K7OLI-13 Weather Reports


time (UTC)temp
C
wind
direction
speed
KPH
gust
KPH
rain 1hr
cm
rain 24hr
cm
rain mn
cm
humidity
%
barometer
mb
20260510034520 20 217 14.5 19.3 0.00 0.00 0.00 63 1011.2
20260510033523 20 220 12.9 20.9 0.00 0.00 0.00 61 1011.2
20260510032532 21 221 12.9 16.1 0.00 0.00 0.00 58 1011.2
20260510031542 22 231 9.7 14.5 0.00 0.00 0.00 54 1011.2
20260510030529 23 232 3.2 4.8 0.00 0.00 0.00 45 1011.2
20260510025611 25 225 0.0 1.6 0.00 0.00 0.00 42 1011.2
20260510024525 25 220 1.6 3.2 0.00 0.00 0.00 41 1011.2
20260510023534 25 237 3.2 4.8 0.00 0.00 0.00 41 1011.2
20260510022524 25 297 0.0 3.2 0.00 0.00 0.00 42 1011.2
20260510021532 25 350 1.6 3.2 0.00 0.00 0.00 41 1011.2
20260510020541 25 0.0 0.0 0.00 0.00 0.00 41 1011.2
20260510015532 25 285 3.2 6.4 0.00 0.00 0.00 41 1011.2
20260510014543 25 337 4.8 6.4 0.00 0.00 0.00 41 1011.2
20260510013528 25 360 4.8 8.0 0.00 0.00 0.00 40 1011.2
20260510012536 25 5 3.2 4.8 0.00 0.00 0.00 39 1011.2
20260510011524 25 345 4.8 6.4 0.00 0.00 0.00 38 1011.2
20260510010531 25 322 3.2 6.4 0.00 0.00 0.00 37 1011.2
20260510005521 25 261 4.8 8.0 0.00 0.00 0.00 38 1011.2
20260510004543 26 260 3.2 8.0 0.00 0.00 0.00 36 1011.2
20260510003557 25 52 6.4 8.0 0.00 0.00 0.00 38 1012.2
20260510001041 26 11 6.4 9.7 0.00 0.00 0.00 35 1012.2
20260510000028 26 295 6.4 9.7 0.00 0.00 0.00 36 1012.2
20260509235029 25 40 6.4 8.0 0.00 0.00 0.00 36 1012.2
20260509234019 25 347 8.0 14.5 0.00 0.00 0.00 38 1012.2
20260509233032 26 275 6.4 9.7 0.00 0.00 0.00 40 1012.2
20260509232025 25 345 8.0 12.9 0.00 0.00 0.00 41 1012.2
20260509231032 25 39 11.3 12.9 0.00 0.00 0.00 42 1012.2
20260509230019 26 279 4.8 6.4 0.00 0.00 0.00 40 1012.2
20260509225029 25 29 6.4 11.3 0.00 0.00 0.00 42 1013.2
20260509224020 25 304 9.7 12.9 0.00 0.00 0.00 41 1013.2
20260509223024 26 298 8.0 12.9 0.00 0.00 0.00 43 1013.2
20260509222035 25 275 8.0 11.3 0.00 0.00 0.00 43 1013.2
20260509221021 25 280 8.0 12.9 0.00 0.00 0.00 45 1013.2
20260509220032 25 279 4.8 8.0 0.00 0.00 0.00 45 1013.2
20260509215019 25 257 9.7 14.5 0.00 0.00 0.00 45 1014.2
20260509214021 25 268 6.4 11.3 0.00 0.00 0.00 45 1014.2
20260509213035 25 258 4.8 11.3 0.00 0.00 0.00 45 1014.2
20260509212042 25 311 6.4 9.7 0.00 0.00 0.00 43 1014.2
20260509211032 25 268 6.4 9.7 0.00 0.00 0.00 45 1014.2
20260509210024 24 344 8.0 12.9 0.00 0.00 0.00 45 1014.2
20260509205031 23 324 8.0 12.9 0.00 0.00 0.00 46 1014.2
20260509204042 23 283 8.0 12.9 0.00 0.00 0.00 48 1014.2
20260509203027 23 256 6.4 12.9 0.00 0.00 0.00 47 1014.2
20260509202055 23 280 8.0 11.3 0.00 0.00 0.00 50 1015.2
20260509201044 23 242 12.9 16.1 0.00 0.00 0.00 51 1015.2
20260509200241 22 239 4.8 6.4 0.00 0.00 0.00 55
20260509195230 22 250 9.7 12.9 0.00 0.00 0.00 53 1015.2
20260509194043 22 237 9.7 14.5 0.00 0.00 0.00 54 1015.2
20260509193037 21 260 9.7 16.1 0.00 0.00 0.00 57 1015.2
20260509192026 21 269 6.4 12.9 0.00 0.00 0.00 58 1015.2
20260509191034 21 291 8.0 14.5 0.00 0.00 0.00 58 1016.0
20260509190104 21 297 8.0 14.5 0.00 0.00 0.00 59 1016.2
20260509185034 21 259 12.9 20.9 0.00 0.00 0.00 60 1016.2
20260509184021 21 248 11.3 14.5 0.00 0.00 0.00 59 1016.2
20260509183028 21 275 8.0 14.5 0.00 0.00 0.00 58 1016.2
20260509182056 21 293 8.0 14.5 0.00 0.00 0.00 59 1016.2
20260509181043 20 318 8.0 9.7 0.00 0.00 0.00 62 1016.2
20260509180708 20 23 6.4 8.0 0.00 0.00 0.00 61
20260509175023 20 331 9.7 14.5 0.00 0.00 0.00 63 1016.2
20260509174258 19 8.0 8.0 0.00 0.00 0.00 64 1016.2
20260509173621 19 30 8.0 12.9 0.00 0.00 0.00 65 1016.2
20260509172027 18 318 6.4 9.7 0.00 0.00 0.00 67 1016.2
20260509171034 17 360 9.7 12.9 0.00 0.00 0.00 70 1017.0
20260509170025 17 6 8.0 11.3 0.00 0.00 0.00 69 1017.2
20260509165032 17 2 6.4 11.3 0.00 0.00 0.00 71 1017.2
20260509164042 17 333 8.0 11.3 0.00 0.00 0.00 71 1017.2
20260509163029 16 335 6.4 9.7 0.00 0.00 0.00 74 1017.2
20260509162019 16 251 4.8 8.0 0.00 0.00 0.00 77 1017.2
20260509161026 15 294 6.4 11.3 0.00 0.00 0.00 78 1017.2
20260509160114 15 299 4.8 9.7 0.00 0.00 0.00 80 1017.2
20260509155025 14 323 8.0 12.9 0.00 0.00 0.00 81 1017.2
20260509154107 14 329 6.4 11.3 0.00 0.00 0.00 81 1017.9
20260509153022 14 320 6.4 9.7 0.00 0.00 0.00 82 1018.1
20260509152030 13 313 4.8 6.4 0.00 0.00 0.00 83 1018.1
20260509151037 13 12 6.4 8.0 0.00 0.00 0.00 84 1018.1
20260509150027 13 293 3.2 4.8 0.00 0.00 0.00 85 1018.2
20260509145055 12 333 3.2 6.4 0.00 0.00 0.00 86 1018.2
20260509144024 12 344 3.2 4.8 0.00 0.00 0.00 88 1018.1
20260509143032 12 18 3.2 6.4 0.00 0.00 0.00 89 1018.2
20260509142025 11 25 6.4 6.4 0.00 0.00 0.00 89 1018.1
20260509141029 11 334 3.2 4.8 0.00 0.00 0.00 92 1017.3
20260509140019 11 43 1.6 4.8 0.00 0.00 0.00 93 1017.1
20260509135027 9 0.0 0.0 0.00 0.00 0.00 99 1017.1
20260509134049 8 0.0 0.0 0.00 0.00 0.00 99 1017.1
20260509133019 8 0.0 0.0 0.00 0.00 0.00 99 1017.1
20260509132032 7 0.0 0.0 0.00 0.00 0.00 99 1017.1
20260509131024 7 0.0 0.0 0.00 0.00 0.00 99 1017.1
20260509130032 7 0.0 0.0 0.00 0.00 0.00 99 1017.1
20260509125019 7 0.0 0.0 0.00 0.00 0.00 99 1017.1
20260509124030 7 0.0 0.0 0.00 0.00 0.00 99 1017.1
20260509123020 7 0.0 0.0 0.00 0.00 0.00 99 1017.1
20260509122025 7 0.0 0.0 0.00 0.00 0.00 99 1017.1
20260509121033 7 0.0 0.0 0.00 0.00 0.00 99 1017.9
20260509120044 8 90 0.0 1.6 0.00 0.00 0.00 99 1018.1
20260509115035 8 0.0 0.0 0.00 0.00 0.00 99 1017.1
20260509114020 8 0.0 0.0 0.00 0.00 0.00 99 1017.1
20260509113021 8 0.0 0.0 0.00 0.00 0.00 99 1017.1
20260509112036 8 0.0 0.0 0.00 0.00 0.00 99 1017.1
20260509111025 8 0.0 0.0 0.00 0.00 0.00 99 1017.9
20260509110033 8 0.0 3.2 0.00 0.00 0.00 99 1018.1
20260509105023 8 230 1.6 3.2 0.00 0.00 0.00 99 1018.1
20260509104032 8 231 3.2 3.2 0.00 0.00 0.00 99 1018.1
20260509103022 8 248 0.0 1.6 0.00 0.00 0.00 99 1018.1
20260509102028 8 248 0.0 3.2 0.00 0.00 0.00 99 1018.1
20260509101037 9 260 1.6 4.8 0.00 0.00 0.00 99 1018.1
20260509100026 9 0.0 0.0 0.00 0.00 0.00 99 1018.1
20260509095034 9 248 1.6 3.2 0.00 0.00 0.00 99 1018.1
20260509094023 8 248 1.6 4.8 0.00 0.00 0.00 98 1018.1
20260509093023 8 0.0 0.0 0.00 0.00 0.00 98 1018.1
20260509092021 9 0.0 0.0 0.00 0.00 0.00 98 1018.1
20260509091028 9 270 0.0 1.6 0.00 0.00 0.00 97 1018.1
20260509090037 9 270 0.0 3.2 0.00 0.00 0.00 97 1018.1
20260509085026 9 0.0 0.0 0.00 0.00 0.00 96 1018.1
20260509084034 10 0.0 1.6 0.00 0.00 0.00 95 1018.1
20260509083025 10 270 1.6 3.2 0.00 0.00 0.00 94 1018.1
20260509082032 10 0 0.0 4.8 0.00 0.00 0.00 94 1018.1
20260509081021 10 0.0 0.0 0.00 0.00 0.00 93 1018.1
20260509080029 11 0.0 0.0 0.00 0.00 0.00 92 1018.1
20260509075040 11 0.0 0.0 0.00 0.00 0.00 92 1018.1
20260509074027 11 0.0 0.0 0.00 0.00 0.00 91 1018.1
20260509073025 11 0.0 0.0 0.00 0.00 0.00 90 1018.1
20260509072025 11 0.0 0.0 0.00 0.00 0.00 88 1018.1
20260509071033 12 221 3.2 4.8 0.00 0.00 0.00 88 1018.1
20260509070045 12 237 3.2 4.8 0.00 0.00 0.00 86 1018.1
20260509065030 12 223 4.8 6.4 0.00 0.00 0.00 86 1018.1
20260509064019 12 190 3.2 4.8 0.00 0.00 0.00 85 1018.1
20260509063027 12 223 4.8 8.0 0.00 0.00 0.00 84 1018.1
20260509062113 13 213 6.4 8.0 0.00 0.00 0.00 84 1018.1
20260509061024 13 201 6.4 8.0 0.00 0.00 0.00 83 1018.1
20260509060033 13 201 6.4 9.7 0.00 0.00 0.00 82 1018.1
20260509055041 13 210 8.0 11.3 0.00 0.00 0.00 82 1018.1
20260509054029 13 209 9.7 12.9 0.00 0.00 0.00 81 1018.1
20260509053019 13 210 9.7 16.1 0.00 0.00 0.00 80 1018.1
20260509052027 14 208 9.7 12.9 0.00 0.00 0.00 80 1018.1
20260509051054 14 193 8.0 11.3 0.00 0.00 0.00 79 1018.1
20260509050025 15 191 9.7 11.3 0.00 0.00 0.00 78 1018.1
20260509045050 15 231 6.4 9.7 0.00 0.00 0.00 78 1018.1
20260509044040 15 212 4.8 8.0 0.00 0.00 0.00 77 1018.1
20260509043029 15 240 6.4 9.7 0.00 0.00 0.00 76 1018.1
20260509042037 15 224 6.4 8.0 0.00 0.00 0.00 75 1018.1
20260509041026 16 220 6.4 11.3 0.00 0.00 0.00 74 1018.1
20260509040034 16 235 6.4 9.7 0.00 0.00 0.00 73 1018.1
20260509035023 16 238 6.4 9.7 0.00 0.00 0.00 72 1018.1